EW7119 Weather Reports


time (UTC)temp
F
wind
direction
speed
knots
gust
knots
rain 1hr
in
rain 24hr
in
rain mn
in
humidity
%
barometer
mb
20260903091542 51 156 0.0 0.0 0.00 0.00 0.00 58 1002.8
20260903090056 52 155 0.0 0.0 0.00 0.00 0.00 58 1003.0
20260903084600 52 155 0.0 0.0 0.00 0.00 0.00 56 1003.1
20260903083111 53 155 0.0 0.0 0.00 0.00 0.00 55 1003.0
20260903081611 54 155 0.0 0.0 0.00 0.00 0.00 54 1003.2
20260903080007 54 111 0.0 0.0 0.00 0.00 0.00 53 1003.3
20260903074529 55 273 0.0 0.0 0.00 0.00 0.00 52 1003.5
20260903073018 56 273 0.0 0.0 0.00 0.00 0.00 49 1003.6
20260903071533 57 273 0.0 0.0 0.00 0.00 0.00 48 1003.6
20260903070002 57 172 0.0 0.0 0.00 0.00 0.00 47 1003.6
20260903064514 57 177 0.0 0.0 0.00 0.00 0.00 46 1003.7
20260903063103 57 254 0.0 0.0 0.00 0.00 0.00 47 1003.8
20260903061522 58 227 0.0 0.0 0.00 0.00 0.00 47 1003.8
20260903060042 58 211 0.0 0.0 0.00 0.00 0.00 47 1003.6
20260903054545 58 133 0.0 0.0 0.00 0.00 0.00 48 1003.6
20260903053049 57 133 0.0 0.0 0.00 0.00 0.00 48 1003.6
20260903051559 57 133 0.0 0.0 0.00 0.00 0.00 50 1003.6
20260903050115 57 133 0.0 0.0 0.00 0.00 0.00 49 1003.5
20260903044557 58 206 0.0 0.0 0.00 0.00 0.00 47 1003.6
20260903043101 58 206 0.0 0.0 0.00 0.00 0.00 45 1003.8
20260903041556 59 206 0.0 0.0 0.00 0.00 0.00 43 1003.6
20260903040104 60 206 0.0 0.0 0.00 0.00 0.00 40 1003.5
20260903034613 61 171 0.0 0.0 0.00 0.00 0.00 37 1003.7
20260903033009 62 154 0.0 0.0 0.00 0.00 0.00 36 1003.2
20260903031522 62 135 0.0 7.0 0.00 0.00 0.00 38 1003.1
20260903030034 62 157 0.0 0.9 0.00 0.00 0.00 37 1002.8
20260903024529 63 182 0.0 0.0 0.00 0.00 0.00 36 1002.8
20260903023021 64 146 0.0 0.0 0.00 0.00 0.00 35 1002.5
20260903021543 64 146 0.0 0.0 0.00 0.00 0.00 35 1002.4
20260903020053 64 150 0.0 0.0 0.00 0.00 0.00 35 1002.2
20260903014555 64 126 0.0 0.0 0.00 0.00 0.00 35 1002.2
20260903013107 65 127 0.0 0.9 0.00 0.00 0.00 33 1002.2
20260903011630 67 249 0.0 0.0 0.00 0.00 0.00 31 1002.0
20260903010009 68 249 0.0 0.0 0.00 0.00 0.00 29 1002.1
20260903004518 69 179 0.0 0.0 0.00 0.00 0.00 28 1002.1
20260903003008 70 252 0.0 1.7 0.00 0.00 0.00 27 1002.0
20260903001512 72 269 0.0 0.0 0.00 0.00 0.00 28 1001.8
20260903000018 70 275 0.0 0.9 0.00 0.00 0.00 30 1001.8
20260902234550 70 147 0.0 0.0 0.00 0.00 0.00 32 1002.0
20260902233101 69 184 0.0 0.0 0.00 0.00 0.00 31 1002.1
20260902231615 69 259 0.0 0.0 0.00 0.00 0.00 31 1002.3
20260902230135 69 292 0.0 0.0 0.00 0.00 0.00 32 1002.4
20260902224502 71 213 0.0 1.7 0.00 0.00 0.00 29 1002.4
20260902223003 70 285 0.0 0.0 0.00 0.00 0.00 34 1002.4
20260902221502 72 306 0.0 0.9 0.00 0.00 0.00 27 1002.5
20260902220134 74 258 0.0 9.6 0.00 0.00 0.00 27 1002.5
20260902214502 73 234 0.0 0.9 0.00 0.00 0.00 26 1002.6
20260902213133 73 142 2.6 10.4 0.00 0.00 0.00 25 1002.7
20260902211501 71 248 0.0 0.0 0.00 0.00 0.00 25 1002.9
20260902210032 71 140 0.0 0.0 0.00 0.00 0.00 29 1003.3
20260902204522 70 271 0.0 0.0 0.00 0.00 0.00 29 1003.7
20260902203044 71 263 0.0 0.0 0.00 0.00 0.00 28 1003.8
20260902201550 70 206 0.0 0.0 0.00 0.00 0.00 28 1004.1
20260902200054 72 274 0.0 4.3 0.00 0.00 0.00 29 1004.2
20260902194604 72 150 0.0 0.0 0.00 0.00 0.00 33 1004.2
20260902193130 72 126 0.0 0.9 0.00 0.00 0.00 31 1004.5
20260902191511 72 175 0.0 0.0 0.00 0.00 0.00 31 1004.6
20260902190032 70 286 0.0 0.0 0.00 0.00 0.00 30 1005.1
20260902184553 70 202 0.0 0.0 0.00 0.00 0.00 34 1005.3
20260902183130 70 222 0.0 0.9 0.00 0.00 0.00 32 1005.5
20260902181512 69 170 0.0 0.9 0.00 0.00 0.00 34 1005.7
20260902180153 68 255 0.0 0.0 0.00 0.00 0.00 33 1005.9
20260902174509 68 274 0.0 11.3 0.00 0.00 0.00 37 1005.9
20260902173034 67 269 0.0 1.7 0.00 0.00 0.00 41 1006.0
20260902171540 65 42 0.0 0.0 0.00 0.00 0.00 40 1006.1
20260902170041 64 328 0.0 0.0 0.00 0.00 0.00 43 1006.3
20260902164551 64 322 0.0 0.0 0.00 0.00 0.00 43 1006.3
20260902163105 63 308 0.0 0.0 0.00 0.00 0.00 42 1006.4
20260902161608 62 44 0.0 0.0 0.00 0.00 0.00 46 1006.8
20260902160026 62 315 0.0 0.0 0.00 0.00 0.00 43 1006.9
20260902154530 62 319 0.0 0.0 0.00 0.00 0.00 47 1007.0
20260902153059 61 35 0.0 0.0 0.00 0.00 0.00 44 1007.1
20260902151607 60 269 0.0 0.0 0.00 0.00 0.00 47 1007.3
20260902150007 59 288 0.0 0.0 0.00 0.00 0.00 48 1007.4
20260902144529 58 327 0.0 0.0 0.00 0.00 0.00 48 1007.4
20260902143041 57 355 0.0 0.0 0.00 0.00 0.00 48 1007.4
20260902141541 55 15 0.0 0.0 0.00 0.00 0.00 52 1007.2
20260902140055 54 18 0.0 0.0 0.00 0.00 0.00 55 1007.3
20260902134557 53 33 0.0 0.0 0.00 0.00 0.00 59 1007.1
20260902133059 52 34 0.0 0.0 0.00 0.00 0.00 56 1006.8
20260902131553 51 30 0.0 0.0 0.00 0.00 0.00 58 1006.8
20260902130057 50 30 0.0 0.0 0.00 0.00 0.00 59 1006.6
20260902124600 50 79 0.0 0.0 0.00 0.00 0.00 60 1006.6
20260902123112 50 88 0.0 0.0 0.00 0.00 0.00 60 1006.4
20260902121511 51 88 0.0 0.0 0.00 0.00 0.00 58 1006.2
20260902120012 52 88 0.0 0.0 0.00 0.00 0.00 57 1006.2
20260902114538 52 90 0.0 0.0 0.00 0.00 0.00 57 1006.0
20260902113035 52 89 0.0 0.0 0.00 0.00 0.00 58 1006.0
20260902111551 52 90 0.0 0.0 0.00 0.00 0.00 58 1006.0
20260902110057 52 87 0.0 0.0 0.00 0.00 0.00 60 1005.9
20260902104559 52 57 0.0 0.0 0.00 0.00 0.00 61 1006.0
20260902103030 52 138 0.0 0.0 0.00 0.00 0.00 61 1006.0
20260902101542 51 138 0.0 0.0 0.00 0.00 0.00 62 1005.9
20260902094543 51 138 0.0 0.0 0.00 0.00 0.00 66 1006.1
20260902093046 51 143 0.0 0.0 0.00 0.00 0.00 66 1006.0